When you browse on this site, cookies collect data to enhance your experience and personalize the content and advertising you see.
Visit our Privacy Policy to learn more. By continuing to use the site, you agree to this use of cookies and data.
  • In Hungary
  • List of Countries
  • For 7 days
  • Water Temperature
  • Satellite Maps
  • Weather Map
  • News
  • Weather Widgets
  • user-avatar
    Login

    Hourly Weather Trujillo

    Today, 17 February, Sunday

    Time Temperature Precipitation Wind Pressure Humidity
    00:00 +20°C° 0 mm 1 mps 647 mmHg 72%
    01:00 +20°C° 0 mm 1 mps 647 mmHg 72%
    02:00 +20°C° 0.2 mm 1 mps 647 mmHg 73%
    03:00 +20°C° 0.2 mm 1 mps 647 mmHg 74%
    04:00 +20°C° 0.2 mm 1 mps 647 mmHg 76%
    05:00 +21°C° 0.2 mm 1 mps 647 mmHg 76%
    06:00 +21°C° 0.2 mm 1 mps 648 mmHg 77%
    07:00 +21°C° 0.2 mm 1 mps 648 mmHg 77%
    08:00 +22°C° 0.1 mm 1 mps 649 mmHg 73%
    09:00 +24°C° 0.1 mm 1 mps 650 mmHg 68%
    10:00 +25°C° 0.1 mm 1 mps 650 mmHg 64%
    11:00 +26°C° 0.1 mm 1 mps 650 mmHg 61%
    12:00 +27°C° 0.1 mm 1 mps 650 mmHg 58%
    13:00 +28°C° 0.1 mm 1 mps 649 mmHg 55%
    14:00 +27°C° 0.1 mm 1 mps 649 mmHg 57%
    15:00 +26°C° 0.1 mm 1 mps 648 mmHg 59%
    16:00 +23°C° 0.1 mm 0 mps 647 mmHg 61%
    17:00 +24°C° 0 mm 1 mps 647 mmHg 66%
    18:00 +23°C° 0 mm 1 mps 647 mmHg 70%
    19:00 +21°C° 0 mm 1 mps 647 mmHg 75%
    20:00 +21°C° 0 mm 1 mps 647 mmHg 74%
    21:00 +21°C° 0 mm 1 mps 648 mmHg 74%
    22:00 +21°C° 0 mm 1 mps 648 mmHg 73%
    23:00 +21°C° 0 mm 1 mps 648 mmHg 74%

    Tomorrow, 18 February, Monday

    Time Temperature Precipitation Wind Pressure Humidity
    00:00 +21°C° 0 mm 1 mps 648 mmHg 74%
    01:00 +20°C° 0 mm 1 mps 647 mmHg 75%
    02:00 +20°C° 0 mm 1 mps 647 mmHg 74%
    03:00 +20°C° 0 mm 1 mps 647 mmHg 74%
    04:00 +19°C° 0 mm 1 mps 647 mmHg 74%
    05:00 +20°C° 0 mm 1 mps 647 mmHg 72%
    06:00 +20°C° 0 mm 1 mps 648 mmHg 70%
    07:00 +20°C° 0 mm 1 mps 649 mmHg 69%
    08:00 +23°C° 0 mm 1 mps 650 mmHg 62%
    09:00 +25°C° 0 mm 1 mps 651 mmHg 56%
    10:00 +27°C° 0 mm 1 mps 652 mmHg 49%
    11:00 +27°C° 0.1 mm 1 mps 651 mmHg 52%
    12:00 +26°C° 0.1 mm 1 mps 650 mmHg 55%
    13:00 +25°C° 0.1 mm 1 mps 649 mmHg 57%
    14:00 +25°C° 0.1 mm 1 mps 648 mmHg 58%
    15:00 +25°C° 0.1 mm 1 mps 648 mmHg 59%
    16:00 +25°C° 0.1 mm 1 mps 647 mmHg 60%
    17:00 +23°C° 0.1 mm 1 mps 647 mmHg 66%
    18:00 +20°C° 0.1 mm 0 mps 647 mmHg 72%
    19:00 +18°C° 0.1 mm 0 mps 647 mmHg 79%
    20:00 +20°C° 0 mm 1 mps 647 mmHg 79%
    21:00 +20°C° 0 mm 1 mps 648 mmHg 79%
    22:00 +19°C° 0 mm 1 mps 648 mmHg 79%
    23:00 +19°C° 0 mm 1 mps 648 mmHg 79%

    Day after tomorrow, 19 February, Tuesday

    Time Temperature Precipitation Wind Pressure Humidity
    00:00 +19°C° 0 mm 1 mps 648 mmHg 78%
    01:00 +19°C° 0 mm 1 mps 647 mmHg 78%
    02:00 +19°C° 0.1 mm 1 mps 647 mmHg 78%
    03:00 +19°C° 0.1 mm 1 mps 647 mmHg 78%
    04:00 +18°C° 0.1 mm 1 mps 647 mmHg 78%
    05:00 +19°C° 0 mm 1 mps 647 mmHg 76%
    06:00 +19°C° 0 mm 1 mps 648 mmHg 74%
    07:00 +20°C° 0 mm 1 mps 649 mmHg 72%
    08:00 +22°C° 0 mm 1 mps 650 mmHg 64%
    09:00 +25°C° 0 mm 1 mps 651 mmHg 57%
    10:00 +27°C° 0 mm 1 mps 652 mmHg 49%
    11:00 +27°C° 0.1 mm 1 mps 651 mmHg 49%
    12:00 +27°C° 0.1 mm 1 mps 650 mmHg 49%
    13:00 +27°C° 0.1 mm 1 mps 649 mmHg 49%
    14:00 +26°C° 0.1 mm 1 mps 648 mmHg 53%
    15:00 +25°C° 0.1 mm 1 mps 647 mmHg 57%
    16:00 +24°C° 0.1 mm 1 mps 646 mmHg 62%
    17:00 +21°C° 0 mm 0 mps 646 mmHg 68%
    18:00 +19°C° 0 mm 0 mps 646 mmHg 74%
    19:00 +18°C° 0 mm 0 mps 646 mmHg 80%
    20:00 +18°C° 0 mm 0 mps 647 mmHg 78%
    21:00 +20°C° 0 mm 1 mps 647 mmHg 77%
    22:00 +20°C° 0 mm 1 mps 648 mmHg 76%
    23:00 +19°C° 0 mm 1 mps 647 mmHg 75%

    20 February, Wednesday

    Time Temperature Precipitation Wind Pressure Humidity
    00:00 +19°C° 0 mm 1 mps 647 mmHg 74%
    01:00 +19°C° 0 mm 1 mps 647 mmHg 72%
    02:00 +19°C° 0 mm 1 mps 646 mmHg 72%
    03:00 +18°C° 0 mm 1 mps 646 mmHg 73%
    04:00 +18°C° 0 mm 1 mps 646 mmHg 73%
    05:00 +19°C° 0 mm 1 mps 647 mmHg 71%
    06:00 +19°C° 0 mm 1 mps 648 mmHg 69%
    07:00 +20°C° 0 mm 1 mps 648 mmHg 67%
    08:00 +22°C° 0 mm 1 mps 649 mmHg 62%
    09:00 +24°C° 0 mm 1 mps 650 mmHg 57%
    10:00 +26°C° 0 mm 1 mps 651 mmHg 51%
    11:00 +26°C° 0 mm 1 mps 650 mmHg 52%
    12:00 +26°C° 0 mm 1 mps 649 mmHg 52%
    13:00 +27°C° 0 mm 1 mps 648 mmHg 53%
    14:00 +26°C° 0.1 mm 1 mps 648 mmHg 56%
    15:00 +25°C° 0.1 mm 1 mps 647 mmHg 60%
    16:00 +24°C° 0.1 mm 1 mps 646 mmHg 64%
    17:00 +23°C° 0.1 mm 1 mps 646 mmHg 69%
    18:00 +20°C° 0.1 mm 0 mps 646 mmHg 75%
    19:00 +18°C° 0.1 mm 0 mps 646 mmHg 81%
    20:00 +18°C° 0 mm 0 mps 646 mmHg 81%
    21:00 +20°C° 0 mm 1 mps 647 mmHg 80%
    22:00 +20°C° 0 mm 1 mps 647 mmHg 79%
    23:00 +19°C° 0 mm 1 mps 647 mmHg 78%

    21 February, Thursday

    Time Temperature Precipitation Wind Pressure Humidity
    00:00 +19°C° 0 mm 1 mps 647 mmHg 78%
    01:00 +19°C° 0 mm 1 mps 646 mmHg 77%
    02:00 +19°C° 0 mm 1 mps 646 mmHg 77%
    03:00 +18°C° 0 mm 1 mps 646 mmHg 77%
    04:00 +18°C° 0 mm 1 mps 646 mmHg 76%
    05:00 +19°C° 0 mm 1 mps 647 mmHg 74%
    06:00 +20°C° 0 mm 1 mps 648 mmHg 72%
    07:00 +20°C° 0 mm 1 mps 648 mmHg 70%
    08:00 +23°C° 0 mm 1 mps 649 mmHg 63%
    09:00 +25°C° 0 mm 1 mps 650 mmHg 55%
    10:00 +27°C° 0 mm 1 mps 651 mmHg 48%
    11:00 +27°C° 0 mm 1 mps 650 mmHg 48%
    12:00 +27°C° 0 mm 1 mps 650 mmHg 49%
    13:00 +27°C° 0 mm 1 mps 649 mmHg 50%
    14:00 +26°C° 0.1 mm 1 mps 648 mmHg 53%
    15:00 +25°C° 0.1 mm 1 mps 647 mmHg 57%
    16:00 +25°C° 0.1 mm 1 mps 646 mmHg 60%
    17:00 +23°C° 0 mm 1 mps 646 mmHg 65%
    18:00 +22°C° 0 mm 1 mps 646 mmHg 71%
    19:00 +21°C° 0 mm 1 mps 646 mmHg 76%
    20:00 +21°C° 0 mm 1 mps 647 mmHg 75%
    21:00 +20°C° 0 mm 1 mps 647 mmHg 75%
    22:00 +20°C° 0 mm 1 mps 647 mmHg 75%
    23:00 +20°C° 0 mm 1 mps 647 mmHg 73%

    22 February, Friday

    Time Temperature Precipitation Wind Pressure Humidity
    00:00 +19°C° 0 mm 1 mps 647 mmHg 72%
    01:00 +19°C° 0 mm 1 mps 647 mmHg 71%
    02:00 +19°C° 0 mm 1 mps 647 mmHg 69%
    03:00 +18°C° 0 mm 1 mps 646 mmHg 68%
    04:00 +18°C° 0 mm 1 mps 646 mmHg 66%
    05:00 +19°C° 0 mm 1 mps 647 mmHg 64%
    06:00 +19°C° 0 mm 1 mps 648 mmHg 62%
    07:00 +20°C° 0 mm 1 mps 649 mmHg 61%
    08:00 +23°C° 0 mm 1 mps 650 mmHg 56%
    09:00 +25°C° 0 mm 1 mps 651 mmHg 51%
    10:00 +28°C° 0 mm 1 mps 652 mmHg 45%
    11:00 +27°C° 0 mm 1 mps 651 mmHg 48%
    12:00 +27°C° 0 mm 1 mps 650 mmHg 51%
    13:00 +26°C° 0 mm 1 mps 649 mmHg 54%
    14:00 +25°C° 0.1 mm 1 mps 648 mmHg 57%
    15:00 +25°C° 0.1 mm 1 mps 648 mmHg 61%
    16:00 +24°C° 0.1 mm 1 mps 647 mmHg 64%
    17:00 +23°C° 0 mm 1 mps 647 mmHg 69%
    18:00 +22°C° 0 mm 1 mps 647 mmHg 74%
    19:00 +19°C° 0 mm 0 mps 647 mmHg 80%
    20:00 +20°C° 0 mm 1 mps 647 mmHg 80%
    21:00 +20°C° 0 mm 1 mps 648 mmHg 80%
    22:00 +19°C° 0 mm 1 mps 648 mmHg 80%
    23:00 +19°C° 0 mm 1 mps 648 mmHg 79%
    Show more